Location: Cisewo
(53.3833°N, 14.9000°E)
Time: 14:53:57
(UTC+00:00)

NOAA 18 - Pass Details

Date: 24 September 2021
Orbit: 841 x 860 km, 99.0° (Epoch: 25 October)

Event Time Altitude Azimuth Distance (km) Brightness Sun altitude
Exits shadow 19:55:27 73° 99° (E) 887 5.0 -26.0°
Maximum altitude 19:55:44 75° 70° (ENE) 880 5.1 -26.1°
Drops below altitude 10° 20:01:14 10° 346° (NNW) 2,486 8.3 -26.7°
Sets 20:03:37 0° 345° (NNW) 3,428 9.2 -27.0°
